{"data":{"norad_id":65166,"intl_designator":"2025-174C","name":"HULIANWANG DIGUI-60","alt_names":[],"object_type":"PAYLOAD","status":"ACTIVE","operator":null,"country":"PRC","launch_date":"2025-08-13","launch_site_code":"WSC","launch_vehicle":null,"mission":null,"orbit_class":"UNKNOWN","rcs_meters":null,"size_class":null,"mass_kg":null,"dimensions":null,"purposes":[],"wikipedia_slug":null,"has_3d_model":false,"image_url":null,"decayed_at":null,"tle_current":{"epoch":"2026-05-25T03:55:41.273760Z","epoch_age_seconds":57305,"freshness":"FRESH","line1":"1 65166U 25174C   26145.16367215  .00000030  00000+0  36735-4 0  9992","line2":"2 65166  86.4951 259.7724 0001879  94.4756 265.6592 13.24403937 37747","mean_motion":13.24403937,"eccentricity":0.0001879,"inclination_deg":86.4951,"raan_deg":259.7724,"arg_perigee_deg":94.4756,"mean_anomaly_deg":265.6592,"bstar":3.6735e-5,"rev_number":3774,"period_min":108.72815760891,"perigee_km":1166.527306873,"apogee_km":1169.3631245697,"semimajor_km":7546.0822157214,"source":"CELESTRAK","updated_at":"2026-05-25T13:38:05.173121Z"}}}